Home   Weather   Balurghat   Past weeks

Flag for India Past Weather in Balurghat, West Bengal, India — Yesterday and Last 2 Weeks

Now
61 °F

Dense fog.


Feels Like: 61 °F
Forecast: 63 / 85 °F
Wind: No wind

Location: Lucknow / Amausi

Current Time: Dec 3, 2016 at 7:55:28 am

Latest Report: Dec 3, 2016 at 7:00 am


Visibility: 0 mi

Pressure: 30.09 "Hg

Humidity: 100%

Dew Point: 61 °F

Location of BalurghatLocation

Past Weather in Balurghat — Graph

°F

Balurghat Temperature Yesterday

Maximum temperature yesterday: 73 °F (at 1:00 pm)
Minimum temperature yesterday: 59 °F (at 4:00 am)
Average temperature yesterday: 64 °F

High & Low Weather Summary for the Past Weeks

 TemperatureHumidityPressure
High86 °F (Nov 22, 1:00 pm)100% (Nov 20, 2:00 am)30.09 "Hg (Nov 20, 2:00 am)
Low52 °F (Nov 18, 6:30 am)27% (Nov 22, 1:30 pm)29.71 "Hg (Dec 2, 8:00 pm)
Average68 °F70%29.91 "Hg
* Reported Nov 18 6:30 am — Dec 3 6:30 am, Balurghat, Weather by CustomWeather, © 2016

Note: Actual official high and low records may vary slightly from our data, if they occured in-between our weather recording intervals... More about our weather records

Advertising

Balurghat Weather History for the Previous 24 Hours

Scroll right to see more
 ConditionsComfort  
Time TempWeatherWind HumidityBarometerVisibility
6:30 am
Sat, Dec 3
61 °FFog.No wind100%30.07 "Hg0 mi
6:00 am61 °FFog.No wind100%30.07 "Hg0 mi
5:30 am61 °FFog.No wind100%30.04 "Hg0 mi
5:00 am63 °FSmoke.No wind94%30.04 "Hg0 mi
3:00 am63 °FFog.No wind100%30.04 "Hg0 mi
2:00 am63 °FFog.No wind100%30.04 "Hg0 mi
1:00 am63 °FFog.No wind100%30.04 "Hg0 mi
12:00 am63 °FFog.No wind100%30.04 "Hg0 mi
11:00 pm
Fri, Dec 2
63 °FFog.No wind100%30.04 "Hg0 mi
10:00 pm63 °FFog.No wind100%30.04 "Hg0 mi
9:00 pm63 °FFog.No wind100%30.04 "Hg0 mi
8:30 pm63 °FFog.2 mph100%30.04 "Hg0 mi
8:00 pm63 °FFog.No wind100%29.71 "Hg0 mi
7:30 pm63 °FDense fog.No wind100%30.01 "Hg0 mi
7:00 pm64 °FFog.No wind100%30.01 "Hg1 mi
6:30 pm66 °FFog.No wind94%30.01 "Hg1 mi
6:00 pm66 °FFog.No wind100%30.01 "Hg1 mi
5:30 pm68 °FFog.No wind94%29.98 "Hg1 mi
5:00 pm70 °FFog.No wind94%29.98 "Hg1 mi
4:30 pm70 °FFog.No wind88%29.98 "Hg1 mi
4:00 pm72 °FFog.No wind83%29.98 "Hg1 mi
3:30 pm72 °FFog.No wind83%29.98 "Hg1 mi
3:00 pm73 °FFog.No wind78%29.98 "Hg1 mi
2:30 pm73 °FFog.No wind78%29.98 "Hg1 mi
2:00 pm73 °FFog.2 mph83%30.01 "Hg1 mi
1:30 pm73 °FFog.2 mph78%30.01 "Hg1 mi
1:00 pm73 °FFog.2 mph78%30.01 "Hg1 mi
12:30 pm70 °FFog.2 mph88%30.04 "Hg1 mi
12:00 pm66 °FFog.2 mph88%30.04 "Hg1 mi
11:30 am64 °FFog.2 mph94%30.07 "Hg1 mi
11:00 am64 °FFog.No wind94%30.07 "Hg1 mi
10:30 am61 °FFog.No wind100%30.09 "Hg1 mi
9:30 am61 °FFog.No wind100%30.09 "Hg0 mi
9:00 am61 °FFog.No wind94%30.09 "Hg0 mi
8:30 am59 °FFog.No wind100%30.07 "Hg0 mi
8:00 am59 °FFog.No wind100%30.07 "Hg0 mi
7:30 am59 °FFog.No wind100%30.04 "Hg0 mi
7:00 am59 °FFog.No wind100%30.04 "Hg0 mi
Weather by CustomWeather, © 2016

See weather overviewHow to use our weather pages